Weather Roundup
Issued by NWS

Home | Current Version | Previous Version | Graphics & Text | Print | Product List | Glossary Off
Versions: 1 2 3 4 5 6 7 8 9 10 11 12 13 14 15 16 17 18 19 20 21 22 23 24 25 26 27 28 29 30 31 32 33 34 35 36 37 38 39 40 41 42 43 44 45 46 47 48 49 50

000
NZUS93 KARX 131259
HRRWXR

CURRENT HOURLY OBSERVATIONS ACROSS
MUCH OF THE UPPER MISSISSIPPI VALLEY
NATIONAL WEATHER SERVICE LA CROSSE WI
700 AM CST WED DEC 13 2017


...SOUTHEAST MINNESOTA...


CITY           SKY/WX    TMP DP  RH WIND       PRES   REMARKS
ROCHESTER      CLOUDY    28  25  88 SW7       29.29F WCI  21
ROCHESTER/MAYO CLOUDY    29  24  79 SE7       29.29F WCI  22
WINONA           N/A     30  23  74 S3        29.35F
AUSTIN         NOT AVBL
ALBERT LEA     PTCLDY    37  25  60 NW13G22   29.32R WCI  29
DODGE CENTER   CLOUDY    32  25  74 W13       29.29S WCI  22
PRESTON        CLOUDY    28  23  81 S9        29.30F WCI  19
OWATONNA       CLOUDY    36  28  75 NW18G24   29.31R WCI  25
FARIBAULT      CLOUDY    36  27  69 W14G23    29.32R WCI  27
$$

...ELSEWHERE IN MINNESOTA...


CITY           SKY/WX    TMP DP  RH WIND       PRES   REMARKS
MINNEAPOLIS    CLOUDY    27  25  92 N8        29.36S WCI  19
INTNL FALLS    CLOUDY    15  11  83 NE7       29.56R WCI   5
DULUTH         LGT SNOW  19  17  92 E9        29.43R FOG     WCI   8
RED WING       CLOUDY    30  21  69 NE3       29.33R
REDWOOD FALLS  LGT SNOW  35  31  85 NW23G37   29.46R FOG     WCI  23
MANKATO        CLOUDY    37  28  70 NW23G33   29.36R WCI  26
WORTHINGTON    MIX PCPN  37  34  89 NW30G37   29.51R WCI  24
FAIRMONT       PTCLDY    39  31  72 NW30G43   29.40R WCI  27
$$

...SOUTHWEST WISCONSIN...


CITY           SKY/WX    TMP DP  RH WIND       PRES   REMARKS
LA CROSSE      CLOUDY    30  22  72 S9        29.35F WCI  22
PRAIRIE DU CHI NOT AVBL
BOSCOBEL       CLOUDY    29  19  66 S9        29.43F WCI  20
LONE ROCK      NOT AVBL
PLATTEVILLE    CLOUDY    28  21  75 S14       29.45F WCI  17
FORT MC COY    CLOUDY    27  20  76 S5        29.40S WCI  21
MAUSTON-NEW LI CLOUDY    26  18  70 S6        29.41F WCI  20
VIROQUA        FAIR      25  22  87 SE12      29.35F WCI  15
WIS DELLS      CLOUDY    27  17  66 S10G18    29.42F WCI  17
$$

...ELSEWHERE IN WISCONSIN...


CITY           SKY/WX    TMP DP  RH WIND       PRES   REMARKS
MILWAUKEE      CLOUDY    23  18  81 S13G26    29.57F WCI  11
MADISON        CLOUDY    27  17  66 S14G28    29.43F WCI  16
GREEN BAY      SNOW      19  14  81 E8        29.55F VSB 1/2 WCI   9
EAU CLAIRE     NOT AVBL
BLACK RVR FLS  FAIR      23  15  71 E6        29.38F WCI  16
MEDFORD        FLURRIES  15  11  86 E8        29.40F WCI   4
WAUSAU         LGT SNOW  14  11  87 E9        29.44F VSB 3/4 WCI   2
WIS RAPIDS     CLOUDY    20  15  81 E7        29.45F WCI  11
MARSHFIELD     CLOUDY    17  14  88 E10       29.40F WCI   5
RICE LAKE      CLOUDY    21  17  83 E7        29.38F WCI  13
$$

...NORTHEAST IOWA...


CITY           SKY/WX    TMP DP  RH WIND       PRES   REMARKS
WATERLOO       CLOUDY    33  24  69 SW9       29.36F WCI  25
DUBUQUE        CLOUDY    27  21  78 S17       29.40F WCI  14
DECORAH        CLOUDY    30  25  80 S9        29.34F WCI  22
MASON CITY     CLOUDY    39  24  55 W21G30    29.36F WCI  29
CHARLES CITY   CLOUDY    30  27  86 SW8       29.35F WCI  23
OELWEIN        CLOUDY    30  27  86 S12       29.37F WCI  21
$$

...ELSEWHERE IN IOWA...


CITY           SKY/WX    TMP DP  RH WIND       PRES   REMARKS
DES MOINES     CLOUDY    39  23  52 W8        29.50F WCI  33
IOWA CITY      CLOUDY    34  24  67 SW10      29.48F WCI  26
FORT DODGE     CLOUDY    45  31  58 NW23G36   29.45R
MARSHALLTOWN   PTCLDY    37  25  61 W16       29.41F WCI  28
CEDAR RAPIDS   CLOUDY    32  24  72 SW12      29.43F WCI  23
$$

...NORTHERN ILLINOIS...


CITY           SKY/WX    TMP DP  RH WIND       PRES   REMARKS
CHICAGO-OHARE  CLOUDY    26  12  55 S12       29.62F WCI  16
CHICAGO-MIDWAY CLOUDY    27  11  51 S12       29.65F WCI  17
MOLINE         CLOUDY    32  21  64 SW16G23   29.48F WCI  21
ROCKFORD       CLOUDY    26  17  68 S17       29.52F WCI  13
PEORIA         PTCLDY    28  17  63 S14       29.61F WCI  17
$$

NOTE: "FAIR" INDICATES FEW OR NO CLOUDS BELOW 12,000 FEET WITH NO
SIGNIFICANT WEATHER AND/OR OBSTRUCTIONS TO VISIBILITY. WIND
SPEEDS ARE IN MILES-PER-HOUR.




USA.gov is the U.S. government's official web portal to all federal, state and local government web resources and services.